Location: Dampvalley
(47.9094°N, 6.1967°E)
Time: 05:05:06
(UTC+00:00)

AO-109 - Pass Details

Date: 02 December 2021
Orbit: 479 x 514 km, 60.7° (Epoch: 28 January)

Event Time Altitude Azimuth Distance (km) Brightness Sun altitude
Exits shadow 05:23:45 26° 330° (NNW) 985 ? -16.3°
Maximum altitude 05:25:38 58° 41° (NE) 565 ? -16.0°
Drops below altitude 10° 05:29:17 10° 121° (ESE) 1,652 ? -15.4°
Sets 05:31:27 0° 125° (SE) 2,530 ? -15.0°
